Home   Weather   Podgorica   Past weeks

Flag for Montenegro Past Weather in Podgorica, Montenegro — Yesterday and Last 2 Weeks

Now
73 °F

Passing clouds.


Feels Like: 77 °F
Forecast: 55 / 78 °F
Wind: 2 mph from North

Location: Podgorica Titograd

Current Time: Sep 25, 2016 at 5:56:35 PM

Latest Report: Sep 25, 2016 at 5:30 PM


Visibility: N/A

Pressure: 30.01 "Hg

Humidity: 44%

Dew Point: 50 °F

Location of PodgoricaLocation

Past Weather in Podgorica — Graph

°F

Podgorica Temperature Yesterday

Maximum temperature yesterday: 77 °F (at 2:30 PM)
Minimum temperature yesterday: 55 °F (at 4:00 AM)
Average temperature yesterday: 65 °F

High & Low Weather Summary for the Past Weeks

 TemperatureHumidityPressure
High88 °F (Sep 12, 2:30 PM)100% (Sep 17, 5:00 AM)30.27 "Hg (Sep 17, 5:00 AM)
Low55 °F (Sep 24, 4:00 AM)25% (Sep 22, 4:30 PM)29.68 "Hg (Sep 19, 1:30 PM)
Average71 °F65%29.98 "Hg
* Reported Sep 10 4:00 PM — Sep 25 4:30 PM, Podgorica, Weather by CustomWeather, © 2016

Note: Actual official high and low records may vary slightly from our data, if they occured in-between our weather recording intervals... More about our weather records

Advertising

Podgorica Weather History for the Previous 24 Hours

Scroll right to see more
 ConditionsComfort  
Time TempWeatherWind HumidityBarometerVisibility
4:30 PM
Sun, Sep 25
75 °FPassing clouds.5 mph36%30.01 "HgN/A
4:00 PM75 °FPassing clouds.5 mph36%30.01 "HgN/A
3:30 PM75 °FPassing clouds.6 mph36%30.01 "HgN/A
3:00 PM75 °FPassing clouds.6 mph39%30.04 "HgN/A
2:30 PM75 °FPassing clouds.6 mph41%30.04 "HgN/A
2:00 PM75 °FPassing clouds.5 mph41%30.04 "HgN/A
1:30 PM75 °FPassing clouds.3 mph41%30.07 "HgN/A
1:00 PM75 °FPassing clouds.5 mph41%30.07 "HgN/A
12:30 PM75 °FPassing clouds.5 mph34%30.07 "HgN/A
12:00 PM75 °FPassing clouds.5 mph31%30.09 "HgN/A
11:30 AM73 °FPassing clouds.3 mph36%30.09 "HgN/A
10:30 AM72 °FPassing clouds.3 mph36%30.12 "HgN/A
10:00 AM70 °FPassing clouds.5 mph40%30.12 "HgN/A
9:30 AM70 °FPassing clouds.7 mph40%30.12 "HgN/A
9:00 AM68 °FPassing clouds.9 mph46%30.12 "HgN/A
8:30 AM64 °FPassing clouds.9 mph52%30.12 "HgN/A
8:00 AM63 °FPassing clouds.10 mph56%30.15 "HgN/A
7:30 AM61 °FPassing clouds.8 mph59%30.12 "HgN/A
7:00 AM57 °FPassing clouds.6 mph67%30.15 "HgN/A
6:30 AM59 °FClear.6 mph63%30.12 "Hg10 mi
6:00 AM59 °FPassing clouds.5 mph63%30.12 "HgN/A
5:30 AM59 °FClear.3 mph63%30.12 "Hg10 mi
5:00 AM57 °FPassing clouds.5 mph67%30.12 "HgN/A
4:30 AM55 °FClear.2 mph77%30.15 "Hg10 mi
4:00 AM57 °FClear.1 mph72%30.15 "Hg10 mi
3:30 AM61 °FPassing clouds.5 mph63%30.15 "HgN/A
3:00 AM61 °FClear.6 mph63%30.15 "Hg10 mi
2:30 AM61 °FClear.2 mph59%30.15 "Hg10 mi
2:00 AM61 °FClear.1 mph63%30.15 "Hg10 mi
1:30 AM61 °FClear.2 mph63%30.15 "Hg10 mi
1:00 AM61 °FClear.6 mph63%30.15 "Hg10 mi
12:30 AM61 °FClear.5 mph68%30.15 "Hg10 mi
12:00 AM61 °FClear.5 mph63%30.15 "Hg10 mi
11:30 PM
Sat, Sep 24
61 °FClear.7 mph68%30.18 "Hg10 mi
11:00 PM61 °FClear.6 mph68%30.18 "Hg10 mi
10:30 PM61 °FClear.1 mph68%30.18 "Hg10 mi
10:00 PM63 °FClear.1 mph64%30.18 "Hg10 mi
9:30 PM63 °FClear.5 mph68%30.18 "Hg10 mi
9:00 PM63 °FClear.6 mph68%30.18 "Hg10 mi
8:30 PM64 °FClear.2 mph68%30.18 "Hg10 mi
8:00 PM66 °FClear.1 mph64%30.15 "Hg10 mi
7:30 PM68 °FClear.1 mph56%30.15 "Hg10 mi
7:00 PM68 °FClear.No wind60%30.15 "Hg10 mi
6:30 PM72 °FSunny.2 mph50%30.15 "Hg10 mi
6:00 PM73 °FSunny.2 mph44%30.18 "Hg10 mi
5:30 PM75 °FSunny.2 mph39%30.18 "Hg10 mi
5:00 PM77 °FPassing clouds.3 mph34%30.18 "HgN/A
Weather by CustomWeather, © 2016

See weather overviewHow to use our weather pages